GW2810 Weather Reports


time (UTC)temp
F
wind
direction
speed
knots
gust
knots
rain 1hr
in
rain 24hr
in
rain mn
in
humidity
%
barometer
mb
20260505035729 59 304 3.5 11.3 0.00 0.00 0.00 43 1005.7
20260505035224 59 5 4.3 7.8 0.00 0.00 0.00 42 1005.5
20260505034722 60 18 5.2 8.7 0.00 0.00 0.00 41 1005.4
20260505034219 60 13 7.8 11.3 0.00 0.00 0.00 40 1005.7
20260505033715 60 316 7.8 12.2 0.00 0.00 0.00 40 1005.4
20260505033213 61 343 5.2 15.6 0.00 0.00 0.00 39 1005.2
20260505032711 61 4 4.3 8.7 0.00 0.00 0.00 38 1005.2
20260505032206 62 44 3.5 11.3 0.00 0.00 0.00 38 1005.2
20260505031704 62 19 6.1 11.3 0.00 0.00 0.00 37 1005.3
20260505031200 63 349 7.0 12.2 0.00 0.00 0.00 36 1005.1
20260505030657 63 349 4.3 11.3 0.00 0.00 0.00 36 1005.1
20260505030153 64 5 3.5 9.6 0.00 0.00 0.00 36 1005.0
20260505025649 64 350 3.5 9.6 0.00 0.00 0.00 36 1004.8
20260505025148 65 3 3.5 9.6 0.00 0.00 0.00 36 1004.6
20260505024645 65 322 7.0 11.3 0.00 0.00 0.00 35 1004.5
20260505024142 65 314 4.3 7.8 0.00 0.00 0.00 35 1004.5
20260505023639 66 320 9.6 13.0 0.00 0.00 0.00 35 1004.2
20260505023137 66 358 4.3 12.2 0.00 0.00 0.00 35 1004.1
20260505022634 67 355 7.8 13.0 0.00 0.00 0.00 35 1003.7
20260505022131 67 9 6.1 13.0 0.00 0.00 0.00 35 1003.5
20260505021628 68 341 8.7 11.3 0.00 0.00 0.00 35 1003.3
20260505021124 68 334 4.3 11.3 0.00 0.00 0.00 36 1003.5
20260505020620 68 2 5.2 9.6 0.00 0.00 0.00 35 1003.2
20260505020116 68 326 6.1 7.8 0.00 0.00 0.00 34 1003.0
20260505015614 69 345 6.1 9.6 0.00 0.00 0.00 34 1002.9
20260505015110 69 319 3.5 9.6 0.00 0.00 0.00 34 1002.7
20260505014607 70 13 7.8 12.2 0.00 0.00 0.00 33 1002.2
20260505014104 70 6 4.3 7.8 0.00 0.00 0.00 34 1002.2
20260505013601 71 12 4.3 12.2 0.00 0.00 0.00 34 1002.1
20260505013059 71 355 5.2 13.9 0.00 0.00 0.00 34 1002.2
20260505012556 71 1 4.3 8.7 0.00 0.00 0.00 35 1001.9
20260505012053 72 8 3.5 7.8 0.00 0.00 0.00 35 1001.8
20260505011549 72 5 5.2 8.7 0.00 0.00 0.00 34 1001.8
20260505011046 72 349 3.5 8.7 0.00 0.00 0.00 35 1001.4
20260505010542 73 18 2.6 11.3 0.00 0.00 0.00 37 1001.6
20260505010038 73 13 1.7 6.1 0.00 0.00 0.00 37 1001.4
20260505005534 75 323 5.2 7.0 0.00 0.00 0.00 36 1001.0
20260505005032 76 333 7.8 8.7 0.00 0.00 0.00 35 1001.2
20260505004529 76 338 3.5 7.8 0.00 0.00 0.00 35 1000.8
20260505004026 76 327 4.3 6.1 0.00 0.00 0.00 34 1000.7
20260505003523 76 347 3.5 3.5 0.00 0.00 0.00 34 1000.6
20260505003020 76 333 0.9 3.5 0.00 0.00 0.00 32 1000.3
20260505002520 75 331 0.9 3.5 0.00 0.00 0.00 31 1000.5
20260505002015 75 316 2.6 3.5 0.00 0.00 0.00 33 1000.4
20260505001512 76 287 4.3 5.2 0.00 0.00 0.00 31 1000.2
20260505001009 76 321 3.5 5.2 0.00 0.00 0.00 31 1000.4
20260505000506 76 296 3.5 7.0 0.00 0.00 0.00 31 1000.2
20260505000003 77 298 5.2 7.0 0.00 0.00 0.00 32 1000.1
20260504235500 78 286 6.1 7.0 0.00 0.00 0.00 29 1000.2
20260504234956 79 297 5.2 11.3 0.00 0.00 0.00 29 1000.3
20260504234454 78 278 5.2 8.7 0.00 0.00 0.00 31 1000.5
20260504233950 79 277 7.0 9.6 0.00 0.00 0.00 28 1000.2
20260504233446 80 287 6.1 7.8 0.00 0.00 0.00 29 1000.0
20260504232943 80 329 5.2 8.7 0.00 0.00 0.00 29 1000.1
20260504232440 80 285 6.1 9.6 0.00 0.00 0.00 29 1000.0
20260504231937 80 292 7.0 11.3 0.00 0.00 0.00 29 1000.2
20260504231433 80 328 4.3 8.7 0.00 0.00 0.00 35 1000.1
20260504230930 80 282 4.3 6.1 0.00 0.00 0.00 36 1000.1
20260504230426 79 345 3.5 9.6 0.00 0.00 0.00 35 1000.2
20260504225926 79 330 5.2 9.6 0.00 0.00 0.00 35 1000.3
20260504225422 77 321 5.2 7.0 0.00 0.00 0.00 38 1000.6
20260504224920 78 312 7.0 11.3 0.00 0.00 0.00 37 1000.4
20260504224416 79 349 3.5 5.2 0.00 0.00 0.00 34 1000.1
20260504223913 79 289 3.5 13.9 0.00 0.00 0.00 33 1000.1
20260504223408 79 290 5.2 9.6 0.00 0.00 0.00 35 1000.2
20260504222905 80 293 9.6 13.9 0.00 0.00 0.00 34 1000.1
20260504222402 80 317 8.7 11.3 0.00 0.00 0.00 36 1000.1
20260504221900 80 6 1.7 7.8 0.00 0.00 0.00 36 1000.0
20260504221356 79 237 1.7 11.3 0.00 0.00 0.00 40 1000.1
20260504220854 80 308 6.1 11.3 0.00 0.00 0.00 35 999.8
20260504220350 81 1 9.6 11.3 0.00 0.00 0.00 34 999.9
20260504215848 82 292 6.1 8.7 0.00 0.00 0.00 34 1000.0
20260504215344 82 326 9.6 13.0 0.00 0.00 0.00 34 999.8
20260504214840 82 75 0.9 3.5 0.00 0.00 0.00 38 999.7
20260504214337 81 324 1.7 7.0 0.00 0.00 0.00 35 1000.1
20260504213834 79 321 3.5 7.0 0.00 0.00 0.00 39 1000.0
20260504213330 80 317 5.2 12.2 0.00 0.00 0.00 38 999.9
20260504212827 82 295 5.2 8.7 0.00 0.00 0.00 41 999.9
20260504212323 83 342 3.5 7.8 0.00 0.00 0.00 36 999.9
20260504211821 82 19 1.7 7.8 0.00 0.00 0.00 39 999.9
20260504211317 80 40 3.5 7.0 0.00 0.00 0.00 37 999.9
20260504210815 79 213 1.7 3.5 0.00 0.00 0.00 38 1000.0
20260504210312 80 300 6.1 7.8 0.00 0.00 0.00 37 1000.0
20260504205809 81 320 3.5 6.1 0.00 0.00 0.00 37 999.8
20260504205306 81 271 5.2 8.7 0.00 0.00 0.00 38 1000.0
20260504204804 83 304 7.8 11.3 0.00 0.00 0.00 36 1000.1
20260504204303 82 62 0.9 3.5 0.00 0.00 0.00 36 1000.0
20260504203802 80 69 1.7 5.2 0.00 0.00 0.00 37 1000.3
20260504203258 81 66 1.7 5.2 0.00 0.00 0.00 37 1000.2
20260504202758 82 61 2.6 3.5 0.00 0.00 0.00 36 1000.1
20260504202256 83 35 1.7 2.6 0.00 0.00 0.00 38 1000.3
20260504201753 82 140 3.5 6.1 0.00 0.00 0.00 38 1000.1
20260504201250 83 76 1.7 5.2 0.00 0.00 0.00 39 1000.2
20260504200748 83 92 0.0 2.6 0.00 0.00 0.00 39 1000.3
20260504200243 82 15 1.7 5.2 0.00 0.00 0.00 38 1000.3
20260504195740 83 52 0.9 3.5 0.00 0.00 0.00 40 1000.6
20260504195236 82 106 0.9 1.7 0.00 0.00 0.00 40 1000.3
20260504194734 82 29 0.9 5.2 0.00 0.00 0.00 38 1000.6
20260504194229 82 54 0.9 2.6 0.00 0.00 0.00 40 1000.5
20260504193726 81 66 0.9 2.6 0.00 0.00 0.00 42 1000.6
20260504193224 82 111 1.7 3.5 0.00 0.00 0.00 41 1000.6
20260504192722 82 57 1.7 3.5 0.00 0.00 0.00 43 1000.7
20260504192220 82 21 0.9 5.2 0.00 0.00 0.00 41 1000.5
20260504191718 82 292 0.9 5.2 0.00 0.00 0.00 40 1000.7
20260504191215 81 77 0.9 6.1 0.00 0.00 0.00 43 1000.8
20260504190710 81 37 1.7 2.6 0.00 0.00 0.00 43 1000.9
20260504190206 81 28 3.5 3.5 0.00 0.00 0.00 42 1000.9
20260504185703 81 358 1.7 5.2 0.00 0.00 0.00 42 1000.8
20260504185200 80 20 3.5 5.2 0.00 0.00 0.00 43 1000.9
20260504184656 80 53 1.7 3.5 0.00 0.00 0.00 46 1001.0
20260504184151 80 196 0.9 3.5 0.00 0.00 0.00 43 1000.9
20260504183648 80 69 0.9 6.1 0.00 0.00 0.00 46 1000.9
20260504183145 80 95 1.7 3.5 0.00 0.00 0.00 45 1001.0
20260504182643 79 50 0.9 3.5 0.00 0.00 0.00 44 1001.0
20260504182140 80 89 2.6 5.2 0.00 0.00 0.00 44 1001.1
20260504181638 79 24 2.6 6.1 0.00 0.00 0.00 44 1000.9
20260504181135 79 253 1.7 2.6 0.00 0.00 0.00 45 1001.0
20260504180634 79 214 1.7 3.5 0.00 0.00 0.00 46 1001.1
20260504180132 79 48 0.9 3.5 0.00 0.00 0.00 51 1001.0
20260504175629 78 64 0.9 2.6 0.00 0.00 0.00 48 1001.1
20260504175126 79 70 0.9 2.6 0.00 0.00 0.00 48 1001.2
20260504174624 79 187 0.9 3.5 0.00 0.00 0.00 47 1001.2
20260504174120 80 41 2.6 3.5 0.00 0.00 0.00 47 1001.0
20260504173618 78 319 0.9 2.6 0.00 0.00 0.00 47 1001.1
20260504173115 78 43 0.9 3.5 0.00 0.00 0.00 52 1001.3
20260504172611 78 105 1.7 3.5 0.00 0.00 0.00 45 1001.2
20260504172108 77 72 0.9 3.5 0.00 0.00 0.00 48 1001.4
20260504171604 77 41 1.7 5.2 0.00 0.00 0.00 47 1001.2
20260504171102 77 40 1.7 2.6 0.00 0.00 0.00 49 1001.3
20260504170557 77 67 0.9 3.5 0.00 0.00 0.00 48 1001.2
20260504150941 72 203 2.6 5.2 0.00 0.00 0.00 53 1001.8
20260504150438 71 49 2.6 6.1 0.00 0.00 0.00 52 1001.8
20260504140904 68 54 1.7 5.2 0.00 0.00 0.00 57 1002.3
20260504140400 68 155 1.7 2.6 0.00 0.00 0.00 56 1002.1
20260504130325 62 203 1.7 3.5 0.00 0.00 0.00 65 1002.3
20260504120249 57 134 1.7 3.5 0.00 0.00 0.00 71 1002.6
20260504110716 55 132 1.7 3.5 0.00 0.00 0.00 68 1002.7
20260504110212 56 132 1.7 5.2 0.00 0.00 0.00 68 1002.7
20260504100136 56 110 2.6 5.2 0.00 0.00 0.00 66 1003.6
20260504081529 55 95 1.7 2.6 0.00 0.00 0.00 66 1005.0
20260504081025 55 89 0.9 1.7 0.00 0.00 0.00 68 1005.3
20260504080522 55 89 0.0 0.9 0.00 0.00 0.00 68 1005.2
20260504050334 59 26 0.0 0.0 0.00 0.00 0.00 54 1006.9
20260504045831 57 26 0.0 0.0 0.00 0.00 0.00 55 1006.7
20260504045326 56 26 0.0 0.0 0.00 0.00 0.00 57 1006.8
20260504044823 57 26 0.0 0.0 0.00 0.00 0.00 59 1006.9
20260504044321 57 25 0.0 0.0 0.00 0.00 0.00 58 1007.0
20260504043818 58 25 0.0 0.0 0.00 0.00 0.00 61 1006.9
20260504043315 57 25 0.0 0.0 0.00 0.00 0.00 58 1007.1
20260504042813 57 25 0.0 0.0 0.00 0.00 0.00 59 1006.8
20260504042309 57 25 0.0 0.0 0.00 0.00 0.00 63 1007.0
20260504041805 58 25 0.0 0.0 0.00 0.00 0.00 60 1007.0
20260504041301 58 25 0.0 0.0 0.00 0.00 0.00 58 1007.1
20260504040758 59 25 0.0 0.0 0.00 0.00 0.00 55 1007.1
20260504040255 59 25 0.0 0.0 0.00 0.00 0.00 55 1007.2